Weather observations for the past three days for
Devils Lake, Devils Lake Municipal Airport
| Date | Time (cdt) | Wind (mph) | Vis. (mi.) | Weather | Sky Cond. | Temperature (ºF) | Relative Humidity | Wind Chill (°F) | Heat Index (°F) | Pressure | Precipitation (in) | ||||||
|---|---|---|---|---|---|---|---|---|---|---|---|---|---|---|---|---|---|
| Air | Dwpt | 6 hour | altimeter (in) | sea level (mb) | 1 hr | 3 hr | 6 hr | ||||||||||
| Max. | Min. | ||||||||||||||||
| 04 | 02:56 | Calm | 10.00 | Fair | CLR | 59 | 59 | 100% | 29.91 | 1013.2 | |||||||
| 04 | 01:56 | E 3 | 10.00 | Fair | CLR | 60.1 | 60.1 | 100% | 29.91 | 1013.2 | |||||||
| 04 | 00:56 | E 5 | 10.00 | Fair | CLR | 60.1 | 60.1 | 70 | 60.1 | 100% | 29.89 | 1012.7 | |||||
| 03 | 23:56 | NE 6 | 10.00 | Fair | CLR | 60.1 | 60.1 | 100% | 29.88 | 1012.4 | |||||||
| 03 | 22:56 | NE 6 | 10.00 | Fair | CLR | 61 | 61 | 100% | 29.88 | 1012.1 | |||||||
| 03 | 21:56 | NE 6 | 10.00 | Partly Cloudy | SCT060 | 62.1 | 62.1 | 100% | 29.88 | 1012.2 | |||||||
| 03 | 20:56 | NE 7 | 10.00 | A Few Clouds | FEW065 | 63 | 62.1 | 97% | 29.86 | 1011.4 | |||||||
| 03 | 19:56 | N 10 | 10.00 | Overcast | SCT024 OVC065 | 66.9 | 63 | 87% | 29.85 | 1011.0 | |||||||
| 03 | 18:56 | N 5 | 10.00 | Overcast | OVC055 | 70 | 62.1 | 72 | 64 | 76% | 29.83 | 1010.4 | 0.01 | ||||
| 03 | 17:56 | SE 12 | 10.00 | Fair | CLR | 71.1 | 63 | 76% | 29.77 | 1008.3 | |||||||
| 03 | 16:56 | SE 8 | 10.00 | Partly Cloudy | SCT070 | 70 | 63 | 79% | 29.79 | 1008.8 | |||||||
| 03 | 15:56 | E 18 | 10.00 | Partly Cloudy | SCT070 | 69.1 | 62.1 | 78% | 29.76 | 1007.8 | 0.01 | ||||||
| 03 | 14:56 | E 23 G 33 | 10.00 | Mostly Cloudy and Breezy | BKN120 | 66.9 | 61 | 81% | 29.73 | 1006.8 | |||||||
| 03 | 13:56 | E 24 G 32 | 10.00 | Thunderstorm Light Rain and Breezy | FEW120 | 64.9 | 61 | 87% | 29.74 | 1007.2 | 0.01 | ||||||
| 03 | 12:56 | E 29 G 33 | 10.00 | Light Rain and Windy | FEW050 BKN090 OVC110 | 64 | 61 | 66.9 | 61 | 90% | 29.75 | 1007.5 | 0.17 | 0.91 | |||
| 03 | 11:56 | NE 24 G 30 | 0.75 | Thunderstorm Heavy Rain Fog/Mist and Breezy | BKN007 OVC011 | 62.1 | 62.1 | 100% | 29.85 | 1011.1 | 0.73 | ||||||
| 03 | 10:56 | N 20 | 10.00 | Thunderstorm in Vicinity | FEW120 | 64 | 60.1 | 87% | 29.8 | 1009.3 | |||||||
| 03 | 09:56 | E 13 | 10.00 | Thunderstorm in Vicinity Light Rain | SCT034 BKN044 | 64 | 60.1 | 87% | 29.8 | 1009.2 | 0.01 | 0.01 | |||||
| 03 | 08:56 | SE 13 | 10.00 | Partly Cloudy | SCT120 | 66 | 57.9 | 75% | 29.81 | 1009.6 | |||||||
| 03 | 07:56 | E 15 | 10.00 | Fair | CLR | 63 | 57 | 81% | 29.79 | 1009.0 | |||||||
| 03 | 06:56 | E 16 | 10.00 | Fair | CLR | 63 | 55.9 | 64 | 61 | 78% | 29.8 | 1009.0 | |||||
| 03 | 05:56 | E 12 | 10.00 | Fair | CLR | 61 | 57 | 87% | 29.82 | 1010.0 | |||||||
| 03 | 04:56 | E 12 | 10.00 | Fair | CLR | 62.1 | 55.9 | 80% | 29.84 | 1010.3 | |||||||
| 03 | 03:56 | E 12 | 10.00 | Fair | CLR | 64 | 55.9 | 75% | 29.85 | 1010.7 | |||||||
| 03 | 02:56 | E 9 | 10.00 | Mostly Cloudy | BKN065 | 63 | 55 | 76% | 29.86 | 1011.3 | |||||||
| 03 | 01:56 | E 9 | 10.00 | Fair | CLR | 63 | 55 | 76% | 29.88 | 1011.8 | |||||||
| 03 | 00:56 | E 8 | 10.00 | A Few Clouds | FEW075 | 64 | 55 | 75.9 | 64 | 73% | 29.89 | 1012.2 | |||||
| 02 | 23:56 | E 10 | 10.00 | Partly Cloudy | SCT085 | 64.9 | 55.9 | 73% | 29.89 | 1012.4 | |||||||
| 02 | 22:56 | E 9 | 10.00 | A Few Clouds | FEW090 | 64.9 | 55.9 | 73% | 29.9 | 1012.5 | |||||||
| 02 | 21:56 | E 9 | 10.00 | Fair | CLR | 66.9 | 57 | 71% | 29.91 | 1013.0 | |||||||
| 02 | 20:56 | E 10 | 10.00 | Fair | CLR | 69.1 | 57 | 66% | 29.91 | 1012.9 | |||||||
| 02 | 19:56 | E 10 | 10.00 | Fair | CLR | 72 | 57 | 59% | 29.89 | 1012.5 | |||||||
| 02 | 18:56 | E 13 | 10.00 | Fair | CLR | 75.9 | 55.9 | 79 | 73.9 | 50% | 78 | 29.89 | 1012.4 | ||||
| 02 | 17:56 | S 10 | 10.00 | Fair | CLR | 78.1 | 55 | 45% | 79 | 29.9 | 1012.5 | ||||||
| 02 | 16:56 | SE 8 | 10.00 | Fair | CLR | 78.1 | 55.9 | 47% | 79 | 29.9 | 1012.6 | ||||||
| 02 | 15:56 | SE 7 | 10.00 | Fair | CLR | 78.1 | 57 | 48% | 79 | 29.92 | 1013.1 | ||||||
| 02 | 14:56 | S 7 | 10.00 | Fair | CLR | 77 | 57 | 50% | 79 | 29.93 | 1013.6 | ||||||
| 02 | 13:56 | S 9 | 10.00 | Fair | CLR | 75.9 | 57 | 52% | 78 | 29.94 | 1014.1 | ||||||
| 02 | 12:56 | SE 8 | 10.00 | Fair | CLR | 73.9 | 57.9 | 73.9 | 54 | 57% | 29.96 | 1014.5 | |||||
| 02 | 11:56 | SE 9 | 10.00 | Fair | CLR | 72 | 57.9 | 61% | 29.97 | 1015.1 | |||||||
| 02 | 10:56 | SE 8 | 10.00 | Fair | CLR | 71.1 | 57.9 | 63% | 29.97 | 1015.0 | |||||||
| 02 | 09:56 | SE 8 | 10.00 | Fair | CLR | 68 | 57.9 | 70% | 29.97 | 1015.0 | |||||||
| 02 | 08:56 | SE 5 | 10.00 | Fair | CLR | 64 | 60.1 | 87% | 29.98 | 1015.3 | |||||||
| 02 | 07:56 | Calm | 10.00 | Fair | CLR | 57 | 57 | 100% | 29.97 | 1015.4 | |||||||
| 02 | 06:56 | E 3 | 9.00 | Fair | CLR | 55 | 55 | 61 | 54 | 100% | 29.96 | 1015.0 | |||||
| 02 | 05:56 | SE 3 | 10.00 | Fair | CLR | 57 | 57 | 100% | 29.96 | 1014.9 | |||||||
| 02 | 04:56 | S 5 | 10.00 | Fair | CLR | 57.9 | 57 | 97% | 29.96 | 1014.7 | |||||||
| 02 | 03:56 | SE 6 | 10.00 | Fair | CLR | 59 | 57 | 93% | 29.96 | 1014.7 | |||||||
| 02 | 02:56 | E 3 | 10.00 | Fair | CLR | 55.9 | 55 | 97% | 29.96 | 1014.6 | |||||||
| 02 | 01:56 | Calm | 10.00 | Fair | CLR | 57.9 | 57 | 97% | 29.96 | 1014.7 | |||||||
| 02 | 00:56 | Calm | 10.00 | Fair | CLR | 61 | 57.9 | 72 | 59 | 90% | 29.96 | 1014.5 | |||||
| 01 | 23:56 | Calm | 10.00 | Fair | CLR | 60.1 | 57.9 | 93% | 29.96 | 1014.7 | |||||||
| 01 | 22:56 | Calm | 10.00 | Fair | CLR | 63 | 57.9 | 84% | 29.95 | 1014.5 | |||||||
| 01 | 21:56 | Calm | 10.00 | Fair | CLR | 66 | 57.9 | 75% | 29.96 | 1014.5 | |||||||
| 01 | 20:56 | NW 5 | 10.00 | Fair | CLR | 66.9 | 59 | 76% | 29.94 | 1014.2 | |||||||
| 01 | 19:56 | NW 3 | 10.00 | Fair | CLR | 70 | 57 | 64% | 29.94 | 1014.1 | |||||||
| 01 | 18:56 | NW 5 | 10.00 | Fair | CLR | 72 | 57 | 77 | 72 | 59% | 29.94 | 1014.1 | |||||
| 01 | 17:56 | NW 8 | 10.00 | Fair | CLR | 75 | 54 | 48% | 78 | 29.95 | 1014.2 | ||||||
| 01 | 16:56 | NW 10 | 10.00 | Fair | CLR | 75 | 54 | 48% | 78 | 29.95 | 1014.4 | ||||||
| 01 | 15:56 | NW 15 G 20 | 10.00 | Fair | CLR | 75.9 | 53.1 | 45% | 78 | 29.94 | 1013.9 | ||||||
| 01 | 14:56 | W 14 | 10.00 | Fair | CLR | 75.9 | 53.1 | 45% | 78 | 29.95 | 1014.1 | ||||||
| 01 | 13:56 | W 15 | 10.00 | Fair | CLR | 73.9 | 53.1 | 48% | 29.95 | 1014.5 | |||||||
| 01 | 12:56 | W 17 | 10.00 | Fair | CLR | 73.9 | 53.1 | 73.9 | 60.1 | 48% | 29.96 | 1014.7 | |||||
| 01 | 11:56 | W 15 | 10.00 | Fair | CLR | 73 | 54 | 51% | 29.97 | 1014.9 | |||||||
| 01 | 10:56 | W 14 | 10.00 | Fair | CLR | 70 | 55.9 | 61% | 29.96 | 1014.8 | |||||||
| 01 | 09:56 | W 14 | 10.00 | Fair | CLR | 66.9 | 55 | 66% | 29.97 | 1015.1 | |||||||
| 01 | 08:56 | NW 15 | 10.00 | Fair | CLR | 64 | 54 | 70% | 29.95 | 1014.5 | |||||||
| 01 | 07:56 | W 14 | 10.00 | Fair | CLR | 62.1 | 55 | 78% | 29.97 | 1015.0 | |||||||
| 01 | 06:56 | W 9 | 10.00 | Fair | CLR | 60.1 | 55.9 | 64 | 59 | 86% | 29.94 | 1014.0 | |||||
| 01 | 05:56 | W 13 | 10.00 | Fair | CLR | 60.1 | 55.9 | 86% | 29.92 | 1013.3 | |||||||
| 01 | 04:56 | W 12 | 10.00 | Fair | CLR | 61 | 55.9 | 84% | 29.92 | 1013.1 | |||||||
| 01 | 03:56 | W 9 | 10.00 | Fair | CLR | 62.1 | 55.9 | 80% | 29.91 | 1012.9 | |||||||
| Date | Time (cdt) | Wind (mph) | Vis. (mi.) | Weather | Sky Cond. | Air | Dwpt | Max. | Min. | Relative Humidity | Wind Chill (°F) | Heat Index (°F) | altimeter (in) | sea level (mb) | 1 hr | 3 hr | 6 hr |
| 6 hour | |||||||||||||||||
| Temperature (ºF) | Pressure | Precipitation (in) | |||||||||||||||